Main page
METAR-TAF:

METAR-TAF

Airports :

Troll C, Norway

Oil platform

latitude: 60-53-09N, longitude: 3-36-35E, elevation: 20 m

Current weather observation

The report was made 33 minutes ago, at 22:50 UTC
Wind 12 kt from the Southwest
Temperature 13°C
Humidity 100%
Pressure 1004 hPa
Visibility: 0300 m
fog

METAR: ENQC 172250Z AUTO 22012KT 0300NDV FG NCD 13/13 Q1004 W///S4

Time: 01:23 (23:23 UTC)


TAF: missing

Weather observations and forecasts of more than 4000 airports (METAR and TAF reports).

The available stations are represented by yellow and red dots on the map.

Hover mouse over dot to see the name of the station.

Then click to see weather observations and forecasts.

To change the map : click on the green buttons with a black cross to zoom in, on the green button with a dash to zoom out, or on the green arrows for adjacent maps.


METAR-TAF: